| time (UTC) | temp C | wind direction | speed KPH | gust KPH | rain 1hr cm | rain 24hr cm | rain mn cm | humidity % | barometer mb |
| 20260506051019 | 12 | 95 | 0.0 | 1.6 | 0.00 | 0.15 | 0.05 | 98 | 1008.2 |
| 20260506045025 | 12 | 0.0 | 0.0 | 0.00 | 0.15 | 0.05 | 98 | 1008.1 | |
| 20260506044029 | 12 | 82 | 0.0 | 1.6 | 0.00 | 0.15 | 0.05 | 96 | 1008.1 |
| 20260506043031 | 12 | 110 | 0.0 | 1.6 | 0.00 | 0.15 | 0.05 | 98 | 1008.1 |
| 20260506042018 | 12 | 111 | 0.0 | 1.6 | 0.00 | 0.15 | 0.05 | 98 | 1008.2 |
| 20260506041023 | 11 | 99 | 0.0 | 3.2 | 0.00 | 0.15 | 0.05 | 98 | 1008.5 |
| 20260506040024 | 11 | 110 | 0.0 | 3.2 | 0.00 | 0.15 | 0.05 | 97 | 1008.3 |
| 20260506035028 | 12 | 0.0 | 0.0 | 0.00 | 0.15 | 0.05 | 96 | 1008.5 | |
| 20260506034030 | 12 | 136 | 0.0 | 1.6 | 0.00 | 0.15 | 0.05 | 96 | 1008.7 |
| 20260506033018 | 12 | 121 | 0.0 | 3.2 | 0.00 | 0.15 | 0.05 | 97 | 1008.7 |
| 20260506032020 | 12 | 111 | 0.0 | 1.6 | 0.00 | 0.15 | 0.05 | 98 | 1008.7 |
| 20260506031023 | 12 | 0.0 | 0.0 | 0.00 | 0.15 | 0.05 | 96 | 1008.3 | |
| 20260506030026 | 12 | 116 | 0.0 | 1.6 | 0.00 | 0.15 | 0.05 | 95 | 1008.3 |
| 20260506025029 | 13 | 137 | 3.2 | 6.4 | 0.00 | 0.15 | 0.05 | 95 | 1008.3 |
| 20260506024016 | 13 | 143 | 1.6 | 4.8 | 0.00 | 0.15 | 0.05 | 95 | 1008.3 |
| 20260506023020 | 13 | 136 | 1.6 | 4.8 | 0.00 | 0.15 | 0.05 | 94 | 1008.4 |
| 20260506022022 | 13 | 141 | 1.6 | 4.8 | 0.00 | 0.15 | 0.05 | 95 | 1008.4 |
| 20260506021024 | 12 | 0.0 | 0.0 | 0.00 | 0.15 | 0.05 | 96 | 1008.4 | |
| 20260506020028 | 12 | 0.0 | 0.0 | 0.00 | 0.15 | 0.05 | 96 | 1008.5 | |
| 20260506015030 | 13 | 133 | 1.6 | 3.2 | 0.00 | 0.15 | 0.05 | 95 | 1008.4 |
| 20260506014018 | 13 | 152 | 1.6 | 4.8 | 0.00 | 0.15 | 0.05 | 94 | 1008.4 |
| 20260506013020 | 13 | 174 | 1.6 | 4.8 | 0.00 | 0.15 | 0.05 | 94 | 1008.5 |
| 20260506012024 | 12 | 189 | 3.2 | 9.7 | 0.00 | 0.15 | 0.05 | 96 | 1008.7 |
| 20260506011027 | 12 | 164 | 3.2 | 4.8 | 0.00 | 0.15 | 0.05 | 97 | 1008.5 |
| 20260506010029 | 12 | 145 | 1.6 | 3.2 | 0.00 | 0.15 | 0.05 | 97 | 1008.3 |
| 20260506005017 | 13 | 105 | 1.6 | 3.2 | 0.00 | 0.15 | 0.05 | 97 | 1008.1 |
| 20260506004019 | 13 | 104 | 0.0 | 1.6 | 0.00 | 0.15 | 0.05 | 95 | 1008.4 |
| 20260506003022 | 13 | 139 | 0.0 | 3.2 | 0.03 | 0.15 | 0.05 | 94 | 1008.6 |
| 20260506002025 | 13 | 128 | 1.6 | 3.2 | 0.03 | 0.15 | 0.05 | 94 | 1008.8 |
| 20260506001029 | 13 | 185 | 3.2 | 6.4 | 0.03 | 0.15 | 0.05 | 93 | 1008.9 |
| 20260506000031 | 13 | 184 | 1.6 | 4.8 | 0.03 | 0.15 | 0.05 | 94 | 1008.9 |
| 20260505235018 | 13 | 139 | 1.6 | 3.2 | 0.03 | 0.15 | 0.05 | 94 | 1008.8 |
| 20260505234021 | 13 | 138 | 1.6 | 3.2 | 0.03 | 0.15 | 0.05 | 94 | 1008.9 |
| 20260505233023 | 13 | 155 | 3.2 | 6.4 | 0.00 | 0.13 | 0.03 | 92 | 1008.9 |
| 20260505232027 | 13 | 182 | 3.2 | 6.4 | 0.00 | 0.13 | 0.03 | 91 | 1008.8 |
| 20260505231029 | 13 | 174 | 3.2 | 6.4 | 0.03 | 0.13 | 0.03 | 91 | 1008.7 |
| 20260505230016 | 13 | 226 | 6.4 | 12.9 | 0.03 | 0.13 | 0.03 | 92 | 1008.7 |
| 20260505225021 | 13 | 240 | 8.0 | 16.1 | 0.03 | 0.13 | 0.03 | 91 | 1008.6 |
| 20260505224023 | 14 | 222 | 8.0 | 16.1 | 0.03 | 0.13 | 0.03 | 91 | 1008.6 |
| 20260505223025 | 14 | 228 | 8.0 | 17.7 | 0.03 | 0.13 | 0.03 | 92 | 1008.5 |
| 20260505222028 | 14 | 190 | 3.2 | 9.7 | 0.03 | 0.13 | 0.03 | 92 | 1008.2 |
| 20260505221032 | 14 | 153 | 1.6 | 4.8 | 0.00 | 0.10 | 0.00 | 92 | 1008.2 |
| 20260505220019 | 14 | 0.0 | 0.0 | 0.00 | 0.10 | 0.10 | 92 | 1008.1 | |
| 20260505215020 | 13 | 126 | 1.6 | 3.2 | 0.00 | 0.10 | 0.10 | 92 | 1007.9 |
| 20260505214023 | 13 | 118 | 0.0 | 1.6 | 0.00 | 0.10 | 0.10 | 95 | 1007.9 |
| 20260505213023 | 13 | 0.0 | 0.0 | 0.00 | 0.10 | 0.10 | 95 | 1007.8 | |
| 20260505212025 | 14 | 142 | 1.6 | 4.8 | 0.00 | 0.10 | 0.10 | 93 | 1007.6 |
| 20260505211028 | 14 | 142 | 3.2 | 4.8 | 0.00 | 0.10 | 0.10 | 93 | 1007.4 |
| 20260505210031 | 13 | 181 | 3.2 | 6.4 | 0.00 | 0.10 | 0.10 | 94 | 1007.4 |
| 20260505205017 | 13 | 178 | 3.2 | 4.8 | 0.00 | 0.10 | 0.10 | 94 | 1007.3 |
| 20260505204018 | 13 | 151 | 1.6 | 3.2 | 0.00 | 0.10 | 0.10 | 95 | 1007.0 |
| 20260505203021 | 13 | 121 | 1.6 | 3.2 | 0.00 | 0.10 | 0.10 | 93 | 1006.7 |
| 20260505202023 | 14 | 114 | 3.2 | 3.2 | 0.00 | 0.10 | 0.10 | 93 | 1006.5 |
| 20260505201027 | 14 | 139 | 4.8 | 9.7 | 0.00 | 0.10 | 0.10 | 93 | 1006.5 |
| 20260505200029 | 14 | 113 | 0.0 | 1.6 | 0.03 | 0.13 | 0.10 | 92 | 1006.3 |
| 20260505195031 | 14 | 0.0 | 0.0 | 0.05 | 0.13 | 0.10 | 93 | 1006.4 | |
| 20260505194018 | 14 | 0.0 | 0.0 | 0.10 | 0.13 | 0.10 | 94 | 1006.4 | |
| 20260505193021 | 15 | 100 | 1.6 | 4.8 | 0.10 | 0.13 | 0.10 | 93 | 1006.2 |
| 20260505192024 | 15 | 119 | 8.0 | 11.3 | 0.10 | 0.13 | 0.10 | 88 | 1006.2 |
| 20260505191026 | 15 | 162 | 4.8 | 9.7 | 0.10 | 0.13 | 0.10 | 85 | 1006.4 |
| 20260505190029 | 16 | 170 | 4.8 | 11.3 | 0.08 | 0.10 | 0.08 | 82 | 1006.3 |
| 20260505185032 | 16 | 176 | 4.8 | 6.4 | 0.05 | 0.08 | 0.05 | 78 | 1006.4 |
| 20260505184018 | 17 | 186 | 4.8 | 11.3 | 0.00 | 0.03 | 0.00 | 71 | 1006.2 |
| 20260505183020 | 18 | 227 | 4.8 | 11.3 | 0.00 | 0.03 | 0.00 | 63 | 1006.0 |
| 20260505182024 | 19 | 265 | 9.7 | 20.9 | 0.00 | 0.03 | 0.00 | 58 | 1005.8 |
| 20260505181026 | 19 | 272 | 19.3 | 35.4 | 0.00 | 0.03 | 0.00 | 56 | 1005.4 |
| 20260505180024 | 20 | 264 | 17.7 | 30.6 | 0.00 | 0.03 | 0.00 | 55 | 1005.1 |
| 20260505175032 | 20 | 270 | 11.3 | 22.5 | 0.00 | 0.03 | 0.00 | 55 | 1004.8 |
| 20260505174019 | 20 | 280 | 17.7 | 37.0 | 0.00 | 0.03 | 0.00 | 53 | 1004.6 |
| 20260505173021 | 21 | 266 | 17.7 | 37.0 | 0.00 | 0.03 | 0.00 | 49 | 1004.3 |
| 20260505172024 | 23 | 204 | 3.2 | 6.4 | 0.00 | 0.03 | 0.00 | 42 | 1003.6 |
| 20260505171024 | 23 | 141 | 1.6 | 3.2 | 0.00 | 0.03 | 0.00 | 42 | 1003.4 |
| 20260505170027 | 23 | 178 | 1.6 | 4.8 | 0.00 | 0.03 | 0.00 | 41 | 1003.5 |
| 20260505165029 | 23 | 178 | 3.2 | 4.8 | 0.00 | 0.03 | 0.00 | 41 | 1003.4 |
| 20260505164031 | 23 | 152 | 1.6 | 4.8 | 0.00 | 0.03 | 0.00 | 40 | 1003.4 |
| 20260505163018 | 24 | 141 | 0.0 | 3.2 | 0.00 | 0.03 | 0.00 | 40 | 1003.5 |
| 20260505162021 | 25 | 132 | 0.0 | 3.2 | 0.00 | 0.03 | 0.00 | 38 | 1003.5 |
| 20260505161019 | 25 | 168 | 3.2 | 4.8 | 0.00 | 0.03 | 0.00 | 36 | 1003.6 |
| 20260505153020 | 26 | 287 | 3.2 | 6.4 | 0.00 | 0.03 | 0.00 | 32 | 1003.8 |
| 20260505152023 | 26 | 83 | 1.6 | 4.8 | 0.00 | 0.03 | 0.00 | 31 | 1003.8 |
| 20260505151024 | 26 | 305 | 4.8 | 12.9 | 0.00 | 0.03 | 0.00 | 31 | 1003.9 |
| 20260505125016 | 27 | 67 | 1.6 | 4.8 | 0.00 | 0.03 | 0.00 | 32 | 1005.2 |
| 20260505124019 | 27 | 49 | 3.2 | 9.7 | 0.00 | 0.03 | 0.00 | 32 | 1005.5 |
| 20260505123021 | 27 | 71 | 1.6 | 4.8 | 0.00 | 0.03 | 0.00 | 33 | 1005.6 |
| 20260505122024 | 26 | 55 | 3.2 | 9.7 | 0.00 | 0.03 | 0.00 | 38 | 1005.8 |
| 20260505121027 | 26 | 66 | 1.6 | 11.3 | 0.00 | 0.03 | 0.00 | 38 | 1006.0 |
| 20260505120030 | 26 | 91 | 1.6 | 4.8 | 0.00 | 0.03 | 0.00 | 39 | 1006.1 |
| 20260505115018 | 25 | 248 | 3.2 | 9.7 | 0.00 | 0.03 | 0.00 | 40 | 1006.2 |
| 20260505114020 | 25 | 217 | 4.8 | 9.7 | 0.00 | 0.03 | 0.00 | 43 | 1006.3 |
| 20260505113023 | 25 | 172 | 3.2 | 9.7 | 0.00 | 0.03 | 0.00 | 44 | 1006.5 |
| 20260505112026 | 24 | 82 | 1.6 | 4.8 | 0.00 | 0.03 | 0.00 | 48 | 1006.5 |
| 20260505111029 | 23 | 25 | 1.6 | 6.4 | 0.00 | 0.03 | 0.00 | 48 | 1006.7 |
| 20260505102027 | 23 | 74 | 3.2 | 9.7 | 0.00 | 0.03 | 0.00 | 49 | 1007.1 |
| 20260505101031 | 23 | 41 | 3.2 | 6.4 | 0.00 | 0.03 | 0.00 | 51 | 1007.3 |
| 20260505100017 | 22 | 43 | 3.2 | 9.7 | 0.00 | 0.03 | 0.00 | 53 | 1007.3 |
| 20260505095020 | 23 | 81 | 1.6 | 6.4 | 0.00 | 0.03 | 0.00 | 51 | 1007.5 |
| 20260505094022 | 23 | 110 | 1.6 | 6.4 | 0.00 | 0.03 | 0.00 | 51 | 1007.6 |
| 20260505093027 | 23 | 92 | 1.6 | 3.2 | 0.00 | 0.03 | 0.00 | 52 | 1007.7 |
| 20260505092029 | 22 | 71 | 1.6 | 4.8 | 0.00 | 0.03 | 0.00 | 55 | 1007.8 |
| 20260505091031 | 22 | 150 | 1.6 | 6.4 | 0.00 | 0.03 | 0.00 | 55 | 1007.9 |
| 20260505090018 | 22 | 136 | 3.2 | 6.4 | 0.00 | 0.03 | 0.00 | 56 | 1008.0 |
| 20260505085021 | 21 | 54 | 3.2 | 6.4 | 0.00 | 0.03 | 0.00 | 58 | 1008.1 |
| 20260505084024 | 20 | 49 | 3.2 | 6.4 | 0.00 | 0.03 | 0.00 | 60 | 1008.1 |
| 20260505083027 | 20 | 65 | 1.6 | 6.4 | 0.00 | 0.03 | 0.00 | 58 | 1008.1 |
| 20260505082031 | 20 | 72 | 1.6 | 6.4 | 0.00 | 0.03 | 0.00 | 58 | 1008.2 |
| 20260505081017 | 20 | 70 | 1.6 | 6.4 | 0.00 | 0.03 | 0.00 | 58 | 1008.2 |
| 20260505080020 | 20 | 77 | 1.6 | 4.8 | 0.00 | 0.03 | 0.00 | 60 | 1008.4 |
| 20260505075023 | 19 | 75 | 1.6 | 4.8 | 0.00 | 0.03 | 0.00 | 61 | 1008.5 |
| 20260505074026 | 19 | 69 | 1.6 | 6.4 | 0.00 | 0.03 | 0.00 | 59 | 1008.5 |
| 20260505073030 | 18 | 70 | 1.6 | 4.8 | 0.00 | 0.03 | 0.00 | 61 | 1008.4 |
| 20260505072032 | 18 | 66 | 1.6 | 4.8 | 0.00 | 0.03 | 0.00 | 63 | 1008.5 |
| 20260505071018 | 18 | 2 | 1.6 | 4.8 | 0.00 | 0.03 | 0.00 | 65 | 1008.7 |
| 20260505070022 | 18 | 13 | 0.0 | 1.6 | 0.00 | 0.03 | 0.00 | 63 | 1008.7 |
| 20260505065025 | 17 | 73 | 0.0 | 3.2 | 0.00 | 0.03 | 0.00 | 70 | 1008.6 |
| 20260505064027 | 16 | 87 | 1.6 | 3.2 | 0.00 | 0.03 | 0.00 | 75 | 1008.6 |
| 20260505063030 | 16 | 0.0 | 0.0 | 0.00 | 0.03 | 0.00 | 76 | 1008.8 | |
| 20260505062017 | 17 | 0.0 | 0.0 | 0.00 | 0.03 | 0.00 | 75 | 1008.8 | |
| 20260505061020 | 16 | 0.0 | 0.0 | 0.00 | 0.03 | 0.00 | 76 | 1008.9 | |
| 20260505060023 | 15 | 0.0 | 0.0 | 0.00 | 0.03 | 0.00 | 81 | 1008.9 |